Tracking 31027 objects as of 19-Jul-2025
HD Live streaming from Space Station
objects crossing your sky now

SL-12 R/B(2)

Track SL-12 R/B(2) now!


NORAD ID: 14086
Int'l Code: 1983-016F
Perigee: 35,499.5 km
Apogee: 35,626.3 km
Inclination: 7.4 °
Period: 1,424.3 minutes
Semi major axis: 41933 km
RCS: 1.9413 m2 (large)
Launch date: March 12, 1983
Source: Commonwealth of Independent States (former USSR) (CIS)
Launch site: TYURATAM MISSILE AND SPACE COMPLEX (TTMTR)

Note: This is a ROCKET BODY
Your satellite tracking list
STARLINK-6351
Track 1 satellite(s)




NASA's NSSDC Master Catalog

Two Line Element Set (TLE):
1 14086U 83016F   25198.85005815  .00000072  00000-0  00000-0 0  9993
2 14086   7.3547 299.4265 0015125 314.6872  23.5229  1.01100924119584
Source of the keplerian elements: AFSPC